Orbital Elements at Epoch 2459200.5 (2020-Dec-17.0) TDB
Reference: JPL 11 (heliocentric ecliptic J2000)
Element | Value | Uncertainty (1-sigma) | Units |
e | .1476073649896012 | 5.8216e-08 | |
a | 2.620641008993296 | 1.9044e-08 | au |
q | 2.233815095072106 | 1.5025e-07 | au |
i | 17.81181186972915 | 5.4501e-06 | deg |
node | 82.94309575383257 | 3.2269e-05 | deg |
peri | 40.7574412201644 | 5.1976e-05 | deg |
M | 179.4819481625106 | 3.6916e-05 | deg |
tp | 2458427.947503747859 (2018-Nov-05.44750375) | 0.00015861 | TDB |
period | 1549.564741736312 4.24 | 1.6891e-05 4.625e-08 | d yr |
n | .2323233036372615 | 2.5325e-09 | deg/d |
Q | 3.007466922914486 | 2.1855e-08 | au |
|
| | Orbit Determination Parameters
Additional Information
|